This is the latest recevied weather packets stored in our database for station/object N5RPG. If no packets are shown the sender has not sent any weather packets the latest 1 day(s).
| Time | Temp. | Humidity | Pressure | Rain* | Wind** | Luminosity | Snow |
|---|---|---|---|---|---|---|---|
| 1836274611 | 22.78° C | 93% | 1017.9 hPa | 0 mm | 0 m/s | 0 W/m² | - |
| 1836274464 | 22.78° C | 93% | 1017.6 hPa | 0 mm | 0 m/s | 0 W/m² | - |
| 1836274309 | 22.78° C | 93% | 1017.8 hPa | 0 mm | 0.89 m/s, 125° | 0 W/m² | - |
| 1836274162 | 22.78° C | 93% | 1017.7 hPa | 0 mm | 0 m/s | 0 W/m² | - |
| 1836274008 | 22.78° C | 93% | 1017.8 hPa | 0 mm | 0.45 m/s, 110° | 0 W/m² | - |
| 1778048550 | 24.44° C | 88% | 1010.2 hPa | 0 mm | 1.34 m/s, 145° | 0 W/m² | - |
| 1778048246 | 24.44° C | 88% | 1010 hPa | 0 mm | 0.89 m/s, 166° | 0 W/m² | - |
| 1778047943 | 24.44° C | 88% | 1009.9 hPa | 0 mm | 0.89 m/s, 250° | 0 W/m² | - |
| 1778047642 | 24.44° C | 88% | 1009.9 hPa | 0 mm | 0.45 m/s, 245° | 0 W/m² | - |
| 1778047338 | 23.89° C | 89% | 1009.7 hPa | 0 mm | 1.34 m/s, 202° | 0 W/m² | - |
| 1778047035 | 23.89° C | 89% | 1009.5 hPa | 0 mm | 1.79 m/s, 229° | 0 W/m² | - |
| 1778046732 | 23.89° C | 89% | 1009.7 hPa | 0 mm | 0.89 m/s, 236° | 0 W/m² | - |
| 1778046429 | 23.89° C | 89% | 1009.5 hPa | 0 mm | 0.45 m/s, 180° | 0 W/m² | - |
| 1778046125 | 23.89° C | 89% | 1009.4 hPa | 0 mm | 0 m/s | 0 W/m² | - |
| 1778045823 | 23.89° C | 89% | 1009.3 hPa | 0 mm | 0.89 m/s, 199° | 0 W/m² | - |
| 1778045522 | 23.89° C | 89% | 1009.5 hPa | 0 mm | 0.45 m/s, 199° | 0 W/m² | - |
| 1778045219 | 23.89° C | 89% | 1009.5 hPa | 0 mm | 0.89 m/s, 138° | 0 W/m² | - |
| 1778044917 | 23.89° C | 90% | 1009.6 hPa | 0 mm | 0.45 m/s, 238° | 0 W/m² | - |
| 1778044614 | 23.89° C | 90% | 1009.5 hPa | 0 mm | 1.79 m/s, 234° | 0 W/m² | - |
| 1778044310 | 23.89° C | 90% | 1009.7 hPa | 0 mm | 0.45 m/s, 40° | 0 W/m² | - |
| 1778044009 | 23.89° C | 90% | 1009.3 hPa | 0 mm | 0 m/s | 0 W/m² | - |
| 1778043706 | 23.89° C | 90% | 1009.2 hPa | 0 mm | 0.45 m/s, 176° | 0 W/m² | - |
| 1778043402 | 23.89° C | 90% | 1009.2 hPa | 0 mm | 0.45 m/s, 152° | 0 W/m² | - |
| 1778043098 | 23.89° C | 89% | 1009.1 hPa | 0 mm | 1.34 m/s, 220° | 0 W/m² | - |
| 1778042797 | 23.89° C | 89% | 1008.9 hPa | 0 mm | 0.45 m/s, 220° | 0 W/m² | - |
* Rain latest hour (hover to see other rain measurements)
** Current wind speed in m/s (hover to see current wind gust speed)